This is the latest recevied weather packets stored in our database for station/object WD9GET. If no packets are shown the sender has not sent any weather packets the latest 10 day(s).
| Time | Temp. | Humidity | Pressure | Rain* | Wind** | Luminosity | Snow |
|---|---|---|---|---|---|---|---|
| 1777312398 | 30° C | 78% | 1010.8 hPa | 0 mm | - | 983 W/m² | - |
| 1777312339 | 30° C | 77% | 1010.8 hPa | 0 mm | - | 660 W/m² | - |
| 1777312278 | 30° C | 77% | 1010.8 hPa | 0 mm | - | 407 W/m² | - |
| 1777312219 | 30° C | 77% | 1010.9 hPa | 0 mm | - | 639 W/m² | - |
| 1777312159 | 30° C | 77% | 1010.8 hPa | 0 mm | - | 787 W/m² | - |
| 1777312098 | 30° C | 77% | 1010.8 hPa | 0 mm | - | 954 W/m² | - |
| 1777312035 | 30° C | 78% | 1010.9 hPa | 0 mm | - | 1017 W/m² | - |
| 1777311975 | 30° C | 77% | 1010.8 hPa | 0 mm | - | 921 W/m² | - |
| 1777311916 | 30° C | 77% | 1010.8 hPa | 0 mm | - | 921 W/m² | - |
| 1777311856 | 30° C | 77% | 1010.8 hPa | 0 mm | - | 802 W/m² | - |
| 1777311796 | 30° C | 76% | 1010.7 hPa | 0 mm | - | 950 W/m² | - |
| 1777311736 | 30° C | 77% | 1010.8 hPa | 0 mm | - | 950 W/m² | - |
| 1777311676 | 30° C | 78% | 1010.8 hPa | 0 mm | - | 1032 W/m² | - |
| 1777311615 | 30° C | 77% | 1010.8 hPa | 0 mm | - | 903 W/m² | - |
| 1777311555 | 30° C | 77% | 1010.9 hPa | 0 mm | - | 872 W/m² | - |
| 1777311495 | 30° C | 77% | 1010.9 hPa | 0 mm | - | 914 W/m² | - |
| 1777311435 | 30° C | 77% | 1010.8 hPa | 0 mm | - | 896 W/m² | - |
| 1777311375 | 30° C | 77% | 1010.8 hPa | 0 mm | - | 896 W/m² | - |
| 1777311315 | 30° C | 77% | 1010.9 hPa | 0 mm | - | 912 W/m² | - |
| 1777311261 | 30° C | 76% | 1010.8 hPa | 0 mm | - | 979 W/m² | - |
| 1777311195 | 30° C | 76% | 1011 hPa | 0 mm | - | 965 W/m² | - |
| 1777311135 | 30° C | 76% | 1011 hPa | 0 mm | - | 965 W/m² | - |
| 1777311076 | 30° C | 77% | 1011 hPa | 0 mm | - | 804 W/m² | - |
| 1777311071 | 30° C | 77% | 1011 hPa | 0 mm | - | 946 W/m² | - |
| 1777310955 | 30° C | 77% | 1010.9 hPa | 0 mm | - | 992 W/m² | - |
* Rain latest hour (hover to see other rain measurements)
** Current wind speed in m/s (hover to see current wind gust speed)